Date,TemperatureHighF,TemperatureAvgF,TemperatureLowF,DewpointHighF,DewpointAvgF,DewpointLowF,HumidityHigh,HumidityAvg,HumidityLow,PressureMaxIn,PressureMinIn,WindSpeedMaxMPH,WindSpeedAvgMPH,GustSpeedMaxMPH,PrecipitationSumIn
2013-1-1,75,63,51,62,56,50,100,81,55,30.24,30.06,8,1,8,0.00
2013-1-2,79,66,55,67,61,55,100,85,60,30.09,29.99,6,0,9,0.00
2013-1-3,72,64,58,67,62,56,100,94,82,30.20,30.06,7,0,8,0.03
2013-1-4,59,57,54,59,57,54,100,100,100,30.31,30.17,5,0,9,0.12
2013-1-5,73,62,53,62,57,52,100,86,67,30.33,30.21,5,0,9,0.37
2013-1-6,79,67,60,68,63,59,100,88,66,30.24,30.07,6,0,6,0.18
2013-1-7,68,62,55,63,58,52,100,89,68,30.25,30.14,5,1,10,0.18
2013-1-8,79,70,63,71,67,63,100,90,67,30.25,30.15,6,0,6,0.02
2013-1-9,79,71,65,73,69,65,100,93,77,30.32,30.22,6,0,6,0.01
2013-1-10,80,71,64,71,66,62,100,85,55,30.33,30.24,11,1,11,0.01
2013-1-11,80,70,60,71,64,60,100,83,54,30.29,30.17,7,1,7,0.01
2013-1-12,81,69,59,69,63,58,100,81,50,30.22,30.11,5,1,7,0.00
2013-1-13,80,70,57,68,62,56,100,80,51,30.19,30.09,6,1,8,0.00
2013-1-14,80,69,59,68,63,58,100,82,55,30.21,30.13,6,1,7,0.00
2013-1-15,79,70,61,68,64,60,100,83,58,30.17,30.07,6,0,7,0.00
2013-1-16,81,70,59,67,62,57,100,79,46,30.13,30.02,5,1,7,0.00
2013-1-17,79,64,53,69,59,46,100,84,62,30.12,29.97,13,2,16,0.00
2013-1-18,65,54,41,60,48,35,96,78,69,30.31,30.12,9,3,16,0.02
2013-1-19,73,64,55,60,57,52,94,80,62,30.32,30.17,8,1,12,0.02
2013-1-20,71,63,59,64,59,53,100,87,68,30.21,30.08,8,1,8,0.01
2013-1-21,74,65,60,61,58,55,92,79,60,30.13,30.01,5,1,6,0.01
2013-1-22,62,57,47,55,45,39,88,65,46,30.30,30.09,5,1,7,0.00
2013-1-23,66,54,44,45,40,34,93,63,31,30.39,30.29,5,1,7,0.00
2013-1-24,72,57,43,53,47,42,100,73,42,30.35,30.23,8,1,9,0.00
2013-1-25,74,61,50,58,51,47,100,73,42,30.33,30.19,5,1,6,0.00
2013-1-26,75,60,46,59,52,45,100,75,48,30.30,30.18,5,1,8,0.00
2013-1-27,77,63,51,63,57,50,100,82,50,30.34,30.25,9,1,10,0.00
2013-1-28,76,69,60,65,62,59,99,80,60,30.36,30.26,8,1,9,0.00
2013-1-29,81,71,61,71,65,61,100,83,53,30.28,30.12,7,1,8,0.00
2013-1-30,82,73,63,67,64,61,100,75,50,30.14,29.90,9,1,14,0.00
2013-1-31,71,59,48,65,39,31,83,50,34,30.25,29.91,7,1,9,0.00
2013-2-1,68,52,39,43,34,27,82,55,22,30.37,30.24,6,1,6,0.11
2013-2-2,71,55,40,47,41,36,90,63,32,30.33,30.16,6,0,6,0.00
2013-2-3,70,56,41,51,44,36,96,66,40,30.21,30.07,9,2,11,0.00
2013-2-4,70,55,41,48,40,35,100,63,29,30.17,30.06,7,0,7,0.00
2013-2-5,75,59,42,54,48,41,98,71,40,30.13,30.02,7,1,8,0.00
2013-2-6,77,67,58,65,58,53,94,76,55,30.14,30.05,3,0,5,0.00
2013-2-7,80,72,62,64,61,57,96,70,51,30.11,29.89,8,1,13,0.00
2013-2-8,78,70,61,66,59,55,94,71,45,30.10,29.88,8,2,10,0.00
2013-2-9,72,62,54,57,54,53,97,78,54,30.23,30.09,7,1,9,0.00
2013-2-10,75,65,54,59,56,52,98,75,47,30.30,30.19,9,1,10,0.00
2013-2-11,81,70,57,63,59,55,100,72,46,30.24,30.08,8,0,10,0.00
2013-2-12,83,73,60,69,63,59,100,74,44,30.12,29.94,10,1,10,0.00
2013-2-13,85,73,63,70,66,61,98,83,48,29.98,29.82,11,2,16,0.43
2013-2-14,66,62,57,64,60,57,100,93,74,30.07,29.93,4,0,4,0.43
2013-2-15,68,58,52,58,54,52,100,89,61,30.11,29.98,4,1,5,0.30
2013-2-16,68,57,49,54,45,29,99,68,35,30.15,29.92,14,2,14,0.05
2013-2-17,53,44,35,32,23,13,82,45,20,30.37,30.15,9,2,11,0.00
2013-2-18,65,50,31,47,38,30,95,68,42,30.39,30.24,7,1,12,0.00
2013-2-19,78,63,46,57,51,44,100,69,41,30.25,30.07,10,1,14,0.00
2013-2-20,75,64,59,60,55,52,98,75,54,30.16,30.04,5,0,8,0.00
2013-2-21,83,69,56,65,58,52,93,71,44,30.14,30.01,8,1,8,0.00
2013-2-22,85,73,61,71,65,59,100,80,43,30.11,30.00,7,1,10,0.00
2013-2-23,87,76,70,70,66,60,98,75,45,30.03,29.88,11,1,11,0.00
2013-2-24,75,70,65,73,69,65,100,97,87,29.99,29.88,7,0,8,0.19
2013-2-25,85,72,62,73,66,59,100,85,43,29.96,29.78,13,1,15,0.19
2013-2-26,76,71,66,73,68,60,100,93,77,29.88,29.76,9,1,11,0.43
2013-2-27,73,66,57,64,56,50,96,74,50,29.99,29.88,5,1,10,0.26
2013-2-28,73,61,49,54,49,43,98,67,38,30.02,29.89,10,2,17,0.00
2013-3-1,64,56,49,49,42,35,86,61,38,30.02,29.93,6,1,12,0.00
2013-3-2,59,51,44,39,35,30,69,55,34,30.05,29.96,11,3,18,0.00
2013-3-3,54,45,37,35,32,31,79,63,46,30.18,30.02,13,3,16,0.00
2013-3-4,64,49,33,38,32,27,95,57,26,30.25,30.14,7,1,8,0.00
2013-3-5,76,60,41,57,43,38,98,59,27,30.21,30.02,8,1,13,0.00
2013-3-6,68,60,49,63,43,31,96,57,29,30.16,29.94,11,2,16,0.00
2013-3-7,67,53,40,47,39,32,88,61,39,30.24,30.14,6,2,9,0.00
2013-3-8,73,57,42,52,43,34,100,67,25,30.24,30.14,7,1,7,0.00
2013-3-9,73,60,45,54,49,44,100,71,40,30.26,30.17,9,1,9,0.00
2013-3-10,76,64,52,58,53,50,100,71,42,30.21,30.11,11,2,11,0.00
2013-3-11,78,67,54,61,56,51,99,71,46,30.14,29.94,7,0,10,0.00
2013-3-12,70,66,59,68,63,57,100,90,75,30.03,29.89,5,0,7,0.25
2013-3-13,73,61,50,58,44,31,99,61,21,30.18,30.03,9,2,10,0.25
2013-3-14,66,54,45,48,36,27,87,55,24,30.29,30.17,7,2,12,0.00
2013-3-15,71,55,39,51,39,33,100,61,27,30.31,30.16,6,1,8,0.00
2013-3-16,79,62,44,52,43,37,100,58,22,30.22,30.06,7,1,9,0.00
2013-3-17,77,64,47,58,50,43,97,64,42,30.18,30.01,8,1,10,0.00
2013-3-18,79,72,64,66,61,58,87,70,54,30.09,29.93,6,0,12,0.00
2013-3-19,86,73,64,65,61,56,100,70,37,30.05,29.90,8,1,8,0.00
2013-3-20,76,67,59,69,63,58,100,85,67,29.99,29.80,9,1,9,0.68
2013-3-21,69,59,49,58,44,30,100,65,23,29.99,29.88,7,2,9,0.68
2013-3-22,77,60,45,63,50,44,99,74,39,30.05,29.92,8,1,9,0.01
2013-3-23,84,72,63,74,66,63,100,85,56,30.01,29.78,9,1,13,0.21
2013-3-24,82,72,65,74,69,64,100,92,64,29.88,29.65,18,2,18,0.36
2013-3-25,71,65,55,68,48,29,98,61,22,30.05,29.73,10,3,13,0.86
2013-3-26,60,53,46,40,32,25,64,45,26,30.26,30.04,11,4,19,0.00
2013-3-27,62,51,41,41,34,30,81,54,30,30.33,30.22,7,2,9,0.00
2013-3-28,70,55,39,44,38,29,96,60,22,30.32,30.20,7,1,7,0.00
2013-3-29,72,58,43,51,40,31,99,59,22,30.35,30.21,8,1,9,0.00
2013-3-30,78,63,46,58,48,43,100,63,32,30.29,30.13,7,1,9,0.00
2013-3-31,81,70,61,56,52,-100,79,57,34,30.19,30.00,8,1,13,0.00
2013-4-1,84,72,62,66,60,56,95,67,42,30.05,29.93,12,2,12,0.00
2013-4-2,81,71,61,66,57,45,100,67,33,30.11,30.01,6,1,8,0.00
2013-4-3,81,71,59,69,62,54,100,76,45,30.10,29.98,9,1,10,0.55
2013-4-4,74,70,66,71,68,64,100,94,78,30.04,29.88,10,1,18,0.63
2013-4-5,75,67,58,69,63,56,99,87,56,30.01,29.83,8,2,9,0.13
2013-4-6,75,64,54,60,56,53,100,78,55,30.16,30.01,8,3,11,0.04
2013-4-7,78,68,57,65,58,55,100,75,48,30.19,30.08,8,1,9,0.01
2013-4-8,82,70,57,67,59,56,100,73,44,30.16,30.08,8,1,10,0.00
2013-4-9,81,72,62,69,61,56,100,73,46,30.19,30.09,9,1,13,0.00
2013-4-10,83,72,59,72,64,58,100,77,47,30.15,30.01,6,0,9,0.00
2013-4-11,87,77,70,73,70,65,100,81,49,30.02,29.85,7,1,10,0.00
2013-4-12,84,78,73,75,71,67,98,81,57,29.92,29.83,13,1,17,0.00
2013-4-13,84,75,68,72,66,57,100,75,52,30.01,29.89,5,1,8,0.00
2013-4-14,85,74,66,72,67,61,100,81,61,30.01,29.83,8,1,9,2.76
2013-4-15,87,74,64,67,64,60,100,75,44,30.09,29.92,7,1,9,2.76
2013-4-16,84,75,68,73,67,63,100,78,58,30.17,30.07,8,1,12,0.00
2013-4-17,81,73,66,71,66,62,100,81,53,30.17,30.07,9,1,10,0.00
2013-4-18,87,76,65,71,66,61,100,75,45,30.09,29.97,5,1,8,0.00
2013-4-19,89,78,72,75,71,64,100,80,44,30.03,29.91,17,1,17,0.21
2013-4-20,74,68,60,72,63,57,98,87,73,30.17,29.97,7,1,13,0.21
2013-4-21,77,68,61,72,66,57,100,94,76,30.16,30.03,8,1,8,0.83
2013-4-22,77,69,65,70,67,65,100,96,68,30.09,30.02,9,1,13,0.88
2013-4-23,79,70,63,68,62,57,100,79,49,30.14,30.03,8,2,10,0.55
2013-4-24,85,71,57,66,60,57,100,73,41,30.16,30.07,8,1,9,0.00
2013-4-25,86,74,61,69,61,56,100,68,39,30.22,30.11,7,1,9,0.00
2013-4-26,86,75,64,69,64,59,100,71,42,30.25,30.16,10,1,10,0.00
2013-4-27,81,73,65,70,64,59,100,76,48,30.24,30.13,9,1,12,0.00
2013-4-28,80,72,64,69,64,59,100,77,49,30.16,30.02,10,1,11,0.00
2013-4-29,85,75,65,72,64,57,100,73,40,30.05,29.91,6,0,6,0.99
2013-4-30,85,73,66,71,67,60,100,85,45,30.03,29.93,9,1,10,1.00
2013-5-1,77,72,67,73,69,67,100,94,75,30.04,29.96,4,0,6,0.54
2013-5-2,75,70,65,72,69,65,100,98,85,29.98,29.84,9,0,11,0.12
2013-5-3,77,71,67,71,68,67,100,93,73,29.86,29.70,12,3,18,2.22
2013-5-4,83,74,68,73,68,66,100,86,57,29.80,29.68,6,1,9,0.26
2013-5-5,77,70,61,68,55,46,98,62,34,29.94,29.76,8,2,13,0.04
2013-5-6,77,69,62,61,56,51,88,64,43,30.01,29.91,9,2,11,0.00
2013-5-7,78,68,55,61,55,52,99,68,44,30.06,29.97,9,1,9,0.00
2013-5-8,82,71,60,65,59,56,100,69,43,30.14,30.03,8,2,8,0.00
2013-5-9,85,73,59,68,60,54,100,69,35,30.16,30.08,6,1,8,0.00
2013-5-10,89,75,64,72,64,-100,100,76,40,30.15,30.01,4,0,9,0.13
2013-5-11,89,78,69,71,68,64,100,75,45,30.06,29.97,8,1,15,0.13
2013-5-12,88,77,68,72,65,-100,98,69,44,30.04,29.94,8,1,12,0.00
2013-5-13,83,73,65,68,60,48,92,65,35,30.14,30.00,7,2,9,0.00
2013-5-14,82,69,56,58,53,45,97,62,28,30.22,30.14,7,1,11,0.00
2013-5-15,83,71,58,64,57,53,100,64,38,30.23,30.11,4,0,7,0.00
2013-5-16,84,68,62,65,40,-100,97,66,40,30.15,30.03,6,0,10,0.00
2013-5-17,86,74,63,68,58,-100,97,69,43,30.12,30.05,8,1,10,0.00
2013-5-18,89,78,67,72,67,60,100,73,39,30.13,30.02,8,1,11,0.00
2013-5-19,88,77,72,73,70,67,98,82,52,30.10,30.01,8,0,8,0.14
2013-5-20,88,76,71,74,70,64,100,85,45,30.10,30.00,8,1,10,0.14
2013-5-21,79,73,69,73,71,69,100,95,77,30.06,29.96,4,0,5,0.43
2013-5-22,85,74,67,76,71,67,100,90,55,29.99,29.92,10,1,11,1.40
2013-5-23,90,76,68,76,70,66,100,84,47,30.01,29.92,6,1,6,0.19
2013-5-24,92,79,68,76,67,59,100,72,35,30.11,29.98,5,1,8,0.37
2013-5-25,82,75,66,71,63,57,100,68,45,30.21,30.09,6,1,9,0.01
2013-5-26,82,72,59,64,59,55,100,67,40,30.23,30.16,7,1,10,0.00
2013-5-27,83,74,64,67,62,58,100,69,42,30.20,30.12,7,1,11,0.00
2013-5-28,84,76,67,72,68,64,98,76,54,30.16,30.09,9,1,16,0.00
2013-5-29,84,77,72,74,71,68,100,83,61,30.15,30.07,9,1,10,0.04
2013-5-30,84,77,71,75,71,66,100,84,57,30.14,30.06,8,1,16,0.12
2013-5-31,84,77,71,73,70,67,99,81,59,30.13,30.05,12,1,16,0.00
2013-6-1,85,78,73,75,73,71,100,85,63,30.09,29.99,9,4,13,0.01
2013-6-2,92,79,73,78,73,-100,100,88,50,30.04,29.89,8,1,10,0.01
2013-6-3,88,78,73,78,74,69,100,89,55,30.01,29.89,7,1,9,1.28
2013-6-4,85,77,72,76,73,68,100,90,60,30.05,29.95,11,1,11,0.37
2013-6-5,83,74,72,77,73,71,100,97,72,30.05,29.93,6,0,6,0.43
2013-6-6,77,74,72,77,74,69,100,98,80,29.93,29.67,10,0,10,3.39
2013-6-7,87,80,73,75,72,68,99,81,60,29.95,29.77,8,1,9,2.98
2013-6-8,86,77,70,78,73,70,100,89,63,30.11,29.95,13,1,13,3.45
2013-6-9,87,78,70,79,72,68,100,83,59,30.12,30.03,6,-6,9,3.45
2013-6-10,91,80,74,78,74,69,100,85,51,30.11,30.01,7,1,7,0.09
2013-6-11,88,77,73,79,74,69,100,92,57,30.10,30.02,8,0,13,0.14
2013-6-12,93,81,70,77,72,66,100,77,41,30.09,29.99,8,1,8,0.21
2013-6-13,93,83,74,76,72,68,97,71,46,30.05,29.89,7,1,7,0.00
2013-6-14,90,83,76,75,71,65,96,71,46,29.95,29.84,8,1,10,0.00
2013-6-15,87,81,77,77,73,70,97,78,61,30.08,29.92,8,1,11,0.00
2013-6-16,86,81,78,76,74,71,91,79,65,30.10,30.03,9,1,8,0.00
2013-6-17,88,80,74,83,76,72,100,90,62,30.10,29.95,7,1,16,1.77
2013-6-18,92,80,72,78,74,71,100,84,52,30.09,29.95,14,1,14,1.77
2013-6-19,91,82,73,79,73,68,100,78,51,30.04,29.96,8,1,17,2.21
2013-6-20,92,81,75,77,74,69,98,79,49,30.09,30.02,9,1,9,0.00
2013-6-22,89,84,80,74,71,65,78,66,45,30.13,30.06,7,1,8,1.70
2013-6-23,87,79,72,77,73,69,100,83,58,30.16,30.08,7,0,11,0.00
2013-6-24,88,79,73,77,73,68,100,83,55,30.19,30.09,5,0,5,0.00
2013-6-25,87,80,73,77,72,65,98,76,51,30.16,30.05,5,0,6,0.15
2013-6-26,89,80,75,78,73,69,100,80,53,30.09,30.02,5,0,5,0.18
2013-6-27,92,80,72,75,71,69,100,77,50,30.06,29.93,5,0,5,0.01
2013-6-28,91,78,74,76,74,71,100,87,54,29.98,29.85,5,0,6,0.24
2013-6-29,90,81,74,79,73,67,100,78,53,29.89,29.80,7,0,15,0.31
2013-6-30,89,77,73,77,74,70,100,91,58,29.90,29.83,8,0,9,1.54
2013-7-1,84,75,73,76,74,69,100,97,69,30.03,29.88,9,0,9,1.54
2013-7-2,82,76,73,79,75,73,100,97,84,30.11,29.99,3,0,2,0.46
2013-7-3,86,77,72,79,75,72,100,95,70,30.14,30.07,7,0,6,0.34
2013-7-4,88,79,71,79,73,68,100,83,55,30.16,30.09,11,0,14,0.55
2013-7-5,87,78,73,78,73,68,100,87,55,30.17,30.07,6,0,9,1.20
2013-7-6,88,81,74,77,73,69,100,77,53,30.14,30.06,6,0,16,0.17
2013-7-7,88,82,74,77,72,67,100,76,52,30.15,30.06,4,0,10,0.00
2013-7-8,88,79,75,78,72,-100,100,83,54,30.17,30.09,6,0,7,0.00
2013-7-9,88,80,73,77,71,65,99,75,48,30.17,30.08,6,1,7,0.00
2013-7-10,88,78,74,76,68,-100,100,78,52,30.11,29.98,6,1,6,0.31
2013-7-11,92,80,74,77,72,67,100,78,46,30.04,29.92,3,0,6,0.31
2013-7-12,87,79,74,76,74,71,100,86,62,29.97,29.90,4,0,8,0.00
2013-7-13,88,79,73,78,72,69,100,81,53,30.02,29.92,12,0,12,0.05
2013-7-14,86,77,72,78,73,71,100,90,63,30.11,29.99,6,0,10,0.08
2013-7-15,85,76,70,76,72,70,100,89,64,30.12,30.03,6,0,4,0.06
2013-7-16,85,77,73,76,74,71,100,92,63,30.17,30.11,7,0,9,0.34
2013-7-17,87,77,74,77,74,70,100,92,59,30.17,30.09,4,0,2,0.45
2013-7-18,83,76,73,77,72,68,100,88,61,30.13,30.06,4,0,0,0.22
2013-7-19,87,75,73,74,73,70,100,94,62,30.15,30.04,5,0,5,0.01
2013-7-20,90,79,72,80,74,70,100,86,58,30.11,30.02,9,0,11,2.57
2013-7-21,92,80,73,79,74,69,100,85,50,30.13,30.02,5,0,9,0.02
2013-7-22,90,78,75,77,74,72,100,90,56,30.12,30.07,5,0,8,0.14
2013-7-23,84,77,74,79,74,73,100,92,73,30.10,29.95,6,0,6,0.16
2013-7-24,86,80,76,78,75,71,100,87,67,30.00,29.88,8,0,8,0.10
2013-7-25,86,80,75,77,75,72,98,86,68,29.98,29.87,4,0,12,0.05
2013-7-26,91,81,75,78,75,71,100,82,53,30.01,29.95,5,1,8,0.01
2013-7-27,92,81,74,78,74,71,100,81,50,30.00,29.90,6,0,10,0.02
2013-7-28,91,78,70,79,73,69,100,89,50,30.09,29.94,16,1,20,0.48
2013-7-29,89,77,71,79,74,71,100,90,56,30.15,30.04,9,0,9,5.76
2013-7-30,90,81,75,79,74,69,100,82,51,30.19,30.09,4,0,10,0.00
2013-7-31,89,81,75,80,75,71,100,84,58,30.15,30.01,5,0,5,0.41
2013-8-1,91,78,74,79,74,71,100,89,52,30.08,29.97,8,0,9,0.34
2013-8-2,90,80,73,79,73,67,100,81,49,30.04,29.96,5,0,7,0.39
2013-8-3,91,80,75,78,75,71,100,85,52,30.10,30.01,4,0,5,0.88
2013-8-4,89,81,75,81,76,71,100,86,62,30.09,29.99,4,0,4,0.88
2013-8-5,92,80,76,81,77,73,100,91,55,30.02,29.92,0,0,0,0.07
2013-8-6,90,80,74,78,75,73,100,87,57,29.98,29.91,0,0,0,1.04
2013-8-7,89,83,77,80,75,72,100,80,59,29.99,29.92,0,0,0,0.01
2013-8-8,89,83,76,79,74,69,100,78,53,30.05,29.96,0,0,0,0.00
2013-8-9,90,82,76,79,73,68,100,77,48,30.09,29.99,0,0,0,0.00
2013-8-10,92,84,74,77,72,68,99,69,45,30.14,30.05,0,0,0,0.00
2013-8-11,93,83,75,80,73,67,100,76,43,30.16,30.07,0,0,0,0.00
2013-8-21,89,80,75,79,76,72,100,87,58,30.12,30.06,0,0,0,0.25
2013-8-22,87,79,77,80,76,72,100,92,70,30.10,30.01,0,0,0,0.25
2013-8-23,88,79,74,80,76,72,100,93,62,30.04,29.97,0,0,0,0.02
2013-8-24,88,78,73,80,75,73,100,93,61,30.12,30.01,0,0,0,0.67
2013-8-25,85,77,74,79,71,-100,100,88,70,30.16,30.09,0,0,0,0.19
2013-8-26,87,80,74,77,74,70,100,84,59,30.16,30.03,0,0,0,0.02
2013-8-27,87,79,73,76,72,64,100,81,48,30.08,30.01,0,0,0,0.00
2013-10-18,88,78,69,76,70,66,100,79,51,29.99,29.89,6,2,7,0.00
2013-10-19,89,79,70,76,71,66,100,79,51,29.96,29.86,8,1,8,0.00
2013-10-20,84,76,74,76,70,-100,100,83,69,29.97,29.86,6,2,8,0.00
2013-10-21,91,78,71,77,73,70,100,87,52,30.00,29.89,6,1,7,0.25
2013-10-22,88,80,73,77,72,69,100,81,55,29.95,29.80,8,3,10,0.24
2013-10-23,81,74,66,72,63,52,97,70,40,30.00,29.80,8,3,11,0.00
2013-10-24,71,65,60,59,54,47,91,69,59,30.16,30.01,6,2,6,0.00